STARLINK-1554, 46055

Orbit data source: Space-Track

STARLINK-1554, 46055 is a payload satellite owned by SpaceX/Seattle (US) in LEO that was launched on Fri, 07 Aug 2020 UTC via an FALCON 9 launch vehicle from the Air Force Eastern Test Range (AFETR). Payload-class satellites include a variety of spacecraft equipped with specific instruments for various scientific and technological missions. These include communications satellites like Starlink; space stations such as the ISS; scientific satellites like the Hubble; Earth observation satellites from companies like Planet Labs, Umbra, and HawkEye 360; GPS; miniature CubeSats for education and research; and military/defense satellites.

Loading next visibility...
Identifier
46055, 2020-055AE
Orbit
LEO
Last TLE update
15 hours ago
Origin
Manufacturer
SpaceX/Seattle
Mission
Operational Commercial Communications
Bus & Motor
STARLINK, Unknown motor
Mass
260 kg wet, ~248 kg dry
Launch date (UTC)
2020-08-07 (5 years ago)
Launch vehicle
FALCON 9
Launch site
Air Force Eastern Test Range (AFETR)
Object type
Payload
Rocket body
Debris
Shape & HBR
Box + 1 Pan, 8.86 m
Radar Cross Section
13.562 m², Large (>1 m²)

Expand to show TLE details & history

TLE from 15 hours ago
0 STARLINK-1554
1 46055U 20055AE  25183.62041664  .00000108  00000-0  26130-4 0  9995
2 46055  53.0540 159.2197 0001348  91.4415 268.6728 15.06396162271348
Epoch: 2025-07-02T14:53Z
TLE epoch observation values (Epoch: 2025-07-02T14:53:23.997Z)
Latitude
-0.00006°
Longitude
14.97076°
Altitude
548.124 km
Speed
7.589 km/s
True Right ascension
10h 36m 52s
True Declination
0° 00' 00"
Sunlit
Object was in daylight at epoch
Visualization orbit readout
Latitude
11.73877°
Longitude
-176.78845°
Altitude
547.047 km
Speed
7.591 km/s
Apparent Right ascension
00h 45m 57s
Apparent Declination
-23° 15' 53"
Sunlit
Object is in full shadow
Visualization observer readout
Local Sidereal Time
17:42:40
Azimuth
99.141° ESE
Elevation
-26.459°
Doppler factor
1
Orbital elements
Apogee altitude
548.428 km
Perigee altitude
546.561 km
Semi-major axis
6,925.631 km
Eccentricity
0.00013
Inclination
53.054°
RAAN
159.2197°
Arg. of periapsis
91.4415°
True anomaly
Unknown
Mean anomaly
268.6728°
Eccentric anomaly
Unknown
Mean motion
3.76577 °/min
Orbital period
95.6 mins
BSTAR
0.00002613
Loading maneuver chart data...
Loading SW <> Apogee altitude chart data...
Loading historical data...
Loading historical data...
Loading historical data...
Loading historical data...
Loading historical data...
Loading historical data...
Loading historical data...

STARLINK-1554 Visibility forecast

Observer location: undefined°, undefined°

Span
Click to sort rows by Start time (UTC) header in descending order
Start Az.
Max El. time (UTC)
Max El. Az.
Max El.
End time (UTC)
End Az.
7 mins2025-07-03 07:17:04.457Z322.017° NNW2025-07-03 07:21:04.457Z51.807° ENE33.309°2025-07-03 07:24:04.457Z103.207° ESE
5 mins2025-07-03 08:58:04.457Z272.256° WNW2025-07-03 09:00:04.457Z227.795° WSW25.002°2025-07-03 09:03:04.457Z173.899° S
6 mins2025-07-04 00:30:04.457Z207.861° SW2025-07-04 00:33:04.457Z123.869° SE38.824°2025-07-04 00:36:04.457Z61.246° ENE
5 mins2025-07-04 02:11:04.457Z297.113° NW2025-07-04 02:13:04.457Z345.618° N24.323°2025-07-04 02:16:04.457Z32.653° NE
|